EWG5KW EDDC-EDDH

Flight info

Callsign EWG5KW
Flight time 0h 40m
Altitude 28000
Route OSKAN9E OSKAN M748 RARUP RARUP6A
Aircraft A319/M-SDE3FGHIRWY/LB1

Departure

Time 2026-04-21 19:05
Airport Dresden Airport (EDDC)

Arrival

Time 2026-04-21 19:46
Airport Hamburg Helmut Schmidt Airport (EDDH)
Time Latitude Longitude Altitude Speed Heading
2026-04-21 18:41 51.12629 13.76401 716 ft 0 kts 131°
2026-04-21 18:56 51.12630 13.76400 711 ft 1 kts 131°
2026-04-21 18:56 51.12646 13.76372 714 ft 4 kts 131°
2026-04-21 18:56 51.12664 13.76340 715 ft 4 kts 134°
2026-04-21 18:57 51.12683 13.76310 715 ft 4 kts 141°
2026-04-21 18:57 51.12705 13.76289 714 ft 4 kts 175°
2026-04-21 18:57 51.12717 13.76291 694 ft 0 kts 221°
2026-04-21 18:59 51.12701 13.76268 708 ft 6 kts 221°
2026-04-21 19:00 51.12653 13.76200 715 ft 13 kts 220°
2026-04-21 19:00 51.12583 13.76093 713 ft 15 kts 246°
2026-04-21 19:00 51.12627 13.75967 712 ft 7 kts 311°
2026-04-21 19:00 51.12640 13.75943 710 ft 0 kts 311°
2026-04-21 19:03 51.12658 13.75909 710 ft 8 kts 311°
2026-04-21 19:03 51.12701 13.75836 714 ft 10 kts 322°
2026-04-21 19:03 51.12759 13.75871 714 ft 0 kts 42°
2026-04-21 19:04 51.12759 13.75872 714 ft 0 kts 42°
2026-04-21 19:04 51.12775 13.75894 711 ft 12 kts 42°
2026-04-21 19:04 51.13002 13.76205 713 ft 76 kts 40°
2026-04-21 19:05 51.13562 13.76976 714 ft 135 kts 41°
2026-04-21 19:05 51.14379 13.78106 1000 ft 161 kts 41°
2026-04-21 19:05 51.15194 13.79312 1826 ft 159 kts 41°
2026-04-21 19:05 51.16059 13.80535 2336 ft 177 kts 40°
2026-04-21 19:06 51.17052 13.81904 2741 ft 200 kts 40°
2026-04-21 19:06 51.18173 13.83435 3212 ft 225 kts 40°
2026-04-21 19:06 51.19444 13.85081 3935 ft 244 kts 32°
2026-04-21 19:06 51.21095 13.85750 4925 ft 254 kts 357°
2026-04-21 19:07 51.22846 13.85223 6037 ft 258 kts 349°
2026-04-21 19:07 51.24612 13.84617 7095 ft 262 kts 351°
2026-04-21 19:07 51.26416 13.84077 8089 ft 267 kts 353°
2026-04-21 19:07 51.28269 13.83612 9082 ft 272 kts 355°
2026-04-21 19:08 51.30155 13.83168 10053 ft 278 kts 352°
2026-04-21 19:08 51.32010 13.82124 10923 ft 289 kts 337°
2026-04-21 19:08 51.33740 13.80234 11332 ft 317 kts 322°
2026-04-21 19:08 51.35430 13.77863 11776 ft 334 kts 322°
2026-04-21 19:09 51.36616 13.76185 12279 ft 339 kts 321°
2026-04-21 19:09 51.38393 13.73663 13112 ft 343 kts 321°
2026-04-21 19:09 51.40189 13.71115 13908 ft 348 kts 321°
2026-04-21 19:09 51.42598 13.67702 14216 ft 350 kts 322°
2026-04-21 19:10 51.44423 13.65123 14261 ft 350 kts 322°
2026-04-21 19:10 51.46254 13.62541 14264 ft 350 kts 322°
2026-04-21 19:10 51.47464 13.60835 14265 ft 350 kts 322°
2026-04-21 19:10 51.49289 13.58257 14264 ft 350 kts 322°
2026-04-21 19:11 51.51115 13.55671 14266 ft 350 kts 322°
2026-04-21 19:11 51.52957 13.53060 14591 ft 355 kts 322°
2026-04-21 19:11 51.54817 13.50421 15320 ft 358 kts 322°
2026-04-21 19:11 51.56692 13.47756 15974 ft 362 kts 322°
2026-04-21 19:12 51.58585 13.45060 16207 ft 364 kts 322°
2026-04-21 19:12 51.60483 13.42357 16267 ft 364 kts 322°
2026-04-21 19:12 51.62379 13.39653 16271 ft 364 kts 322°
2026-04-21 19:12 51.64273 13.36944 16273 ft 364 kts 322°
2026-04-21 19:13 51.66164 13.34236 16271 ft 364 kts 322°
2026-04-21 19:13 51.68060 13.31518 16274 ft 364 kts 322°
2026-04-21 19:13 51.69954 13.28805 16275 ft 364 kts 322°
2026-04-21 19:13 51.71851 13.26087 16274 ft 364 kts 322°
2026-04-21 19:14 51.73745 13.23373 16274 ft 364 kts 322°
2026-04-21 19:14 51.75636 13.20654 16275 ft 364 kts 322°
2026-04-21 19:14 51.77528 13.17923 16272 ft 365 kts 322°
2026-04-21 19:14 51.79420 13.15190 16267 ft 365 kts 322°
2026-04-21 19:15 51.81316 13.12453 16272 ft 366 kts 322°
2026-04-21 19:15 51.83210 13.09715 16274 ft 366 kts 322°
2026-04-21 19:15 51.85129 13.06936 16274 ft 366 kts 322°
2026-04-21 19:15 51.86999 13.04223 16274 ft 366 kts 322°
2026-04-21 19:16 51.88894 13.01472 16274 ft 366 kts 322°
2026-04-21 19:16 51.90813 12.98685 16274 ft 366 kts 322°
2026-04-21 19:16 51.92695 12.95955 16674 ft 370 kts 322°
2026-04-21 19:16 51.94618 12.93163 17399 ft 372 kts 322°
2026-04-21 19:17 51.98516 12.87492 18771 ft 381 kts 322°
2026-04-21 19:17 52.00496 12.84601 19394 ft 385 kts 322°
2026-04-21 19:17 52.02492 12.81682 20035 ft 389 kts 322°
2026-04-21 19:18 52.04517 12.78712 20671 ft 393 kts 322°
2026-04-21 19:18 52.06551 12.75722 21299 ft 396 kts 323°
2026-04-21 19:18 52.08605 12.72700 21910 ft 400 kts 323°
2026-04-21 19:18 52.10674 12.69654 22546 ft 403 kts 323°
2026-04-21 19:19 52.12758 12.66583 23159 ft 406 kts 323°
2026-04-21 19:19 52.14863 12.63485 23756 ft 410 kts 323°
2026-04-21 19:19 52.16982 12.60357 24261 ft 413 kts 323°
2026-04-21 19:19 52.19117 12.57197 24761 ft 416 kts 323°
2026-04-21 19:20 52.21265 12.54015 25259 ft 419 kts 323°
2026-04-21 19:20 52.23428 12.50804 25763 ft 422 kts 323°
2026-04-21 19:20 52.25609 12.47565 26250 ft 424 kts 323°
2026-04-21 19:20 52.27752 12.44212 26718 ft 429 kts 320°
2026-04-21 19:21 52.29839 12.40696 27164 ft 434 kts 318°
2026-04-21 19:21 52.31872 12.37110 27623 ft 437 kts 317°
2026-04-21 19:21 52.33975 12.33509 28091 ft 437 kts 322°
2026-04-21 19:21 52.36212 12.30132 28287 ft 439 kts 323°
2026-04-21 19:22 52.38515 12.26751 28321 ft 450 kts 324°
2026-04-21 19:22 52.40893 12.23334 28319 ft 461 kts 324°
2026-04-21 19:22 52.45844 12.16287 28321 ft 480 kts 324°
2026-04-21 19:23 52.50897 12.09009 28322 ft 485 kts 323°
2026-04-21 19:23 52.55945 12.01647 28327 ft 486 kts 323°
2026-04-21 19:24 52.61013 11.94236 28326 ft 487 kts 323°
2026-04-21 19:24 52.66133 11.86947 28304 ft 485 kts 326°
2026-04-21 19:25 52.71475 11.80212 28309 ft 482 kts 329°
2026-04-21 19:25 52.76884 11.73643 28313 ft 483 kts 329°
2026-04-21 19:26 52.82242 11.66928 28317 ft 483 kts 328°
2026-04-21 19:26 52.84906 11.63512 28124 ft 485 kts 327°
2026-04-21 19:26 52.87572 11.60074 27713 ft 486 kts 327°
2026-04-21 19:27 52.90240 11.56627 27315 ft 487 kts 327°
2026-04-21 19:27 52.92916 11.53178 26919 ft 488 kts 327°
2026-04-21 19:27 52.95599 11.49728 26526 ft 489 kts 327°
2026-04-21 19:27 52.98298 11.46255 26145 ft 490 kts 327°
2026-04-21 19:28 53.00996 11.42784 25761 ft 490 kts 327°
2026-04-21 19:28 53.03693 11.39310 25267 ft 491 kts 327°
2026-04-21 19:28 53.06395 11.35827 24775 ft 490 kts 327°
2026-04-21 19:28 53.09081 11.32365 24417 ft 488 kts 327°
2026-04-21 19:29 53.11758 11.28916 24025 ft 484 kts 327°
2026-04-21 19:29 53.14443 11.25570 23466 ft 478 kts 329°
2026-04-21 19:29 53.17144 11.22390 22910 ft 473 kts 330°
2026-04-21 19:29 53.19855 11.19316 22358 ft 469 kts 330°
2026-04-21 19:30 53.22527 11.16327 21802 ft 455 kts 331°
2026-04-21 19:30 53.25102 11.13382 21280 ft 444 kts 327°
2026-04-21 19:30 53.27288 11.09791 20767 ft 440 kts 311°
2026-04-21 19:30 53.28828 11.05410 20258 ft 436 kts 295°
2026-04-21 19:31 53.29627 11.00549 19759 ft 432 kts 282°
2026-04-21 19:31 53.30124 10.95697 19273 ft 425 kts 282°
2026-04-21 19:31 53.30615 10.90797 18787 ft 418 kts 281°
2026-04-21 19:31 53.31087 10.86038 18258 ft 412 kts 281°
2026-04-21 19:32 53.31547 10.81404 17701 ft 406 kts 281°
2026-04-21 19:32 53.32007 10.76794 17166 ft 399 kts 281°
2026-04-21 19:32 53.32469 10.72183 16632 ft 393 kts 281°
2026-04-21 19:32 53.32918 10.67716 16115 ft 387 kts 281°
2026-04-21 19:33 53.33212 10.64779 15781 ft 383 kts 281°
2026-04-21 19:33 53.33788 10.59013 15112 ft 376 kts 281°
2026-04-21 19:33 53.34213 10.54722 14619 ft 372 kts 281°
2026-04-21 19:33 53.34633 10.50471 14132 ft 367 kts 281°
2026-04-21 19:34 53.35044 10.46282 13592 ft 363 kts 281°
2026-04-21 19:34 53.35449 10.42136 13054 ft 359 kts 281°
2026-04-21 19:34 53.35847 10.38035 12527 ft 356 kts 281°
2026-04-21 19:34 53.36239 10.33964 12008 ft 352 kts 281°
2026-04-21 19:35 53.36625 10.29931 11494 ft 349 kts 281°
2026-04-21 19:35 53.37387 10.21983 10494 ft 342 kts 281°
2026-04-21 19:35 53.37759 10.18089 9982 ft 335 kts 281°
2026-04-21 19:36 53.38120 10.14291 9466 ft 327 kts 281°
2026-04-21 19:36 53.38472 10.10583 9012 ft 316 kts 281°
2026-04-21 19:36 53.38808 10.07015 8569 ft 305 kts 281°
2026-04-21 19:36 53.39132 10.03554 8130 ft 296 kts 281°
2026-04-21 19:37 53.39447 10.00188 7698 ft 288 kts 281°
2026-04-21 19:37 53.39755 9.96911 7272 ft 282 kts 281°
2026-04-21 19:37 53.40064 9.93698 6851 ft 276 kts 281°
2026-04-21 19:37 53.40368 9.90546 6407 ft 271 kts 281°
2026-04-21 19:38 53.40667 9.87451 5961 ft 267 kts 281°
2026-04-21 19:38 53.40962 9.84408 5515 ft 262 kts 281°
2026-04-21 19:38 53.41155 9.82417 5232 ft 259 kts 281°
2026-04-21 19:38 53.41538 9.78520 4645 ft 251 kts 281°
2026-04-21 19:39 53.41835 9.75637 4198 ft 244 kts 284°
2026-04-21 19:39 53.42573 9.73239 4006 ft 223 kts 319°
2026-04-21 19:39 53.43820 9.71863 4028 ft 211 kts 345°
2026-04-21 19:39 53.45225 9.71801 4041 ft 202 kts 17°
2026-04-21 19:40 53.46571 9.72543 3737 ft 205 kts 23°
2026-04-21 19:40 53.47907 9.73419 3349 ft 207 kts 24°
2026-04-21 19:40 53.49223 9.74296 2953 ft 205 kts 24°
2026-04-21 19:40 53.50535 9.75162 2582 ft 199 kts 24°
2026-04-21 19:41 53.51713 9.76170 2524 ft 181 kts 42°
2026-04-21 19:41 53.52523 9.77647 2543 ft 167 kts 52°
2026-04-21 19:41 53.53259 9.79124 2537 ft 163 kts 52°
2026-04-21 19:41 53.53981 9.80576 2490 ft 162 kts 52°
2026-04-21 19:42 53.54702 9.82023 2336 ft 161 kts 52°
2026-04-21 19:42 53.55416 9.83459 2139 ft 159 kts 52°
2026-04-21 19:42 53.56124 9.84882 1924 ft 158 kts 52°
2026-04-21 19:42 53.56787 9.86213 1718 ft 136 kts 52°
2026-04-21 19:43 53.57361 9.87367 1531 ft 124 kts 51°
2026-04-21 19:43 53.57904 9.88461 1363 ft 119 kts 51°
2026-04-21 19:43 53.58428 9.89520 1188 ft 117 kts 51°
2026-04-21 19:43 53.58951 9.90575 1013 ft 117 kts 51°
2026-04-21 19:44 53.59473 9.91626 843 ft 117 kts 51°
2026-04-21 19:44 53.59986 9.92663 687 ft 116 kts 51°
2026-04-21 19:44 53.60509 9.93718 537 ft 116 kts 51°
2026-04-21 19:44 53.61032 9.94775 356 ft 117 kts 50°
2026-04-21 19:45 53.61556 9.95830 216 ft 117 kts 50°
2026-04-21 19:45 53.62072 9.96872 50 ft 114 kts 50°
2026-04-21 19:45 53.62510 9.97756 41 ft 75 kts 50°
2026-04-21 19:45 53.62795 9.98330 43 ft 54 kts 50°
2026-04-21 19:46 53.63036 9.98821 46 ft 56 kts 50°
2026-04-21 19:46 53.63250 9.99257 47 ft 34 kts 54°
2026-04-21 19:46 53.63279 9.99644 48 ft 28 kts 100°
2026-04-21 19:46 53.63163 9.99812 47 ft 20 kts 153°
2026-04-21 19:47 53.63029 9.99928 48 ft 21 kts 152°
2026-04-21 19:47 53.62947 10.00066 48 ft 17 kts 83°
2026-04-21 19:47 53.63009 10.00162 48 ft 21 kts 32°
2026-04-21 19:47 53.63142 10.00222 48 ft 11 kts 356°
2026-04-21 19:48 53.63203 10.00276 48 ft 13 kts 82°
2026-04-21 19:48 53.63206 10.00361 48 ft 3 kts 86°
2026-04-21 19:48 53.63206 10.00372 48 ft 0 kts 86°